Location: Archamps
(46.1365°N, 6.1329°E)
Time: 00:46:44
(UTC+00:00)

Cosmos 2263 Rocket - Pass Details

Date: 28 January 2023
Orbit: 825 x 847 km, 71.0° (Epoch: 24 March)

Event Time Altitude Azimuth Distance (km) Brightness Sun altitude
Rises 18:51:55 0° 326° (NW) 3,374 5.8 -23.8°
Reaches altitude 10° 18:54:32 10° 317° (NW) 2,435 5.1 -24.3°
Maximum altitude 18:59:29 34° 255° (WSW) 1,334 3.8 -25.2°
Drops below altitude 10° 19:04:25 10° 192° (SSW) 2,419 4.7 -26.0°
Sets 19:07:02 0° 183° (S) 3,348 5.3 -26.5°
